Temperature
17 17 17 17 18 18 18 17 17 18 18 18 18 17 17 17 17 17 16 16 16 16 16 16 16 16 16 16 16 16 16 16 16 16 15 15 15 15 15 15 15 15 15
17 17 17 17 17 17 17 17 17 17 17 17 17 17 17 17 17 17 17 16 16 16 16 16 16 16 16 16 16 16 16 16 16 16 15 15 15 15 15 15 15 15 15
17 17 17 17 17 17 17 17 17 17 17 17 17 17 17 17 17 16 16 16 16 16 16 16 16 16 16 16 16 15 15 15 15 15 15 15 15 15 15 15 15 15 15
17 17 17 17 17 17 17 17 17 17 17 17 17 17 17 17 16 16 16 16 16 16 16 16 16 16 16 15 15 15 15 15 15 15 15 15 15 15 15 15 15 15 15
17 17 17 17 17 17 17 17 17 17 17 17 17 17 16 16 16 16 16 16 16 16 16 16 16 16 16 16 15 15 15 15 15 15 15 15 15 15 15 15 15 15 15
17 17 17 17 17 17 17 17 17 16 17 17 17 16 16 16 16 16 16 16 16 16 16 15 15 15 15 15 15 15 15 15 15 15 15 15 15 15 15 15 15 15 15
16 16 16 16 16 17 17 17 16 16 16 16 16 16 16 16 16 16 16 16 16 16 15 15 15 15 15 15 15 15 15 15 15 15 14 14 14 14 14 14 14 14 14
16 16 16 16 16 16 16 16 16 16 16 16 16 16 16 16 16 15 15 15 15 15 15 15 15 15 15 15 15 15 15 14 14 14 14 14 14 14 14 14 14 14 14
16 16 15 16 16 16 16 16 16 16 16 16 16 16 16 16 15 15 15 15 15 15 15 15 15 15 15 15 14 14 14 14 14 14 14 14 14 14 14 14 14 14 14
15 15 15 15 15 16 16 16 16 16 16 15 15 15 15 15 15 15 15 15 15 15 15 15 15 15 14 14 14 14 14 14 14 14 14 14 14 14 14 14 14 14 14
15 15 15 15 15 15 15 15 15 15 15 15 15 15 15 15 15 15 15 15 15 15 15 15 15 14 14 14 14 14 14 14 14 14 14 14 13 13 13 13 13 13 13
15 15 15 15 15 15 15 15 15 15 15 15 15 15 15 15 15 15 14 14 14 14 14 14 14 14 14 14 14 13 13 13 13 13 13 13 13 13 13 13 13 13 13
14 14 14 14 14 14 14 15 15 15 15 15 15 15 15 15 14 14 14 14 14 14 14 14 14 14 14 14 13 13 13 13 13 13 13 13 13 13 13 13 12 12 12
14 14 14 14 14 14 14 14 14 14 14 14 14 14 14 14 14 14 14 14 14 14 14 14 14 13 13 13 13 13 13 13 13 13 13 13 13 13 13 12 12 12 12
14 14 14 14 14 14 14 14 14 14 14 14 14 14 14 14 14 14 14 14 14 14 13 13 13 13 13 13 13 13 13 13 12 12 12 12 12 12 12 12 12 12 11
14 14 14 13 13 13 14 14 14 14 14 14 14 14 14 13 13 13 13 13 13 13 13 13 13 13 13 12 12 12 12 12 12 12 12 12 12 12 12 12 12 11 11
14 13 13 13 13 13 13 13 13 13 13 13 13 13 13 13 13 13 13 13 13 13 13 12 12 12 12 12 12 12 12 12 12 12 12 12 12 11 11 11 11 11 11
13 13 13 13 13 13 13 13 13 13 13 13 13 13 13 13 13 12 12 12 12 12 12 12 12 12 12 12 12 12 12 11 11 11 11 11 11 11 11 11 11 11 10
13 13 13 13 13 13 13 13 13 12 12 12 12 12 12 12 12 12 12 12 12 12 12 12 11 11 11 11 11 11 11 11 11 11 11 11 11 10 10 10 10 10 10
13 13 13 13 12 12 12 12 12 12 12 12 12 12 12 12 12 11 11 11 11 11 11 11 11 11 11 10 10 10 10 10 10 10 10 10 10 10 10 10 10 9 9
13 12 12 12 12 12 12 12 12 12 12 12 11 11 11 11 11 11 11 11 11 11 11 11 10 10 10 10 10 10 10 10 10 10 9 10 10 10 9 9 9 9 9
12 12 12 12 12 12 12 12 12 11 11 11 11 11 11 11 11 10 10 10 10 10 10 10 10 10 10 9 8 8 8 8 9 9 9 9 9 9 9 9 8 8 8
12 12 12 12 12 11 11 11 11 11 11 10 11 11 10 10 10 10 10 10 10 10 10 9 9 9 9 9 8 7 7 7 7 8 8 8 8 8 8 8 8 8 7
12 12 12 11 11 11 11 10 10 10 10 10 10 10 10 10 10 9 9 9 9 9 9 9 9 8 8 8 8 7 7 6 6 6 7 7 7 7 7 7 7 7 7
12 12 11 11 11 10 10 10 10 10 10 10 9 9 9 9 9 9 9 9 9 9 8 8 8 8 8 8 7 7 6 6 6 6 6 6 6 7 6 6 6 6 6
11 11 11 10 10 10 10 9 9 9 9 9 9 9 9 9 9 9 8 8 8 8 8 8 8 7 7 7 7 6 6 6 5 5 5 5 5 6 6 6 6 6 6
Wind_Speed
5 8 15 15 15 15 15 15 15 15 15 15 15 15 15 15 15 15 14 14 14 13 12 12 12 12 12 12 12 12 12 11 11 10 10 10 10 10 10 10 10 9 10
8 11 16 16 16 16 15 15 15 15 15 15 15 14 14 14 14 14 14 13 13 13 12 12 12 12 11 11 11 11 11 10 9 9 9 9 9 9 9 9 9 8 9
10 13 16 17 16 16 15 15 15 15 15 14 14 14 14 14 14 14 14 13 12 12 11 11 11 11 10 10 10 10 10 9 9 8 7 7 6 7 7 8 8 7 7
12 13 15 17 16 16 16 15 15 15 14 14 14 14 14 13 13 13 13 12 12 11 11 10 10 10 9 9 8 8 8 8 8 8 6 5 4 5 6 6 6 6 6
10 13 16 18 17 17 16 16 15 15 14 14 14 13 13 13 13 12 12 12 11 11 10 10 9 8 8 7 7 6 7 7 7 6 5 4 3 4 5 5 5 5 4
9 12 16 17 17 16 16 15 14 14 14 14 13 13 12 12 12 12 11 11 11 10 9 9 8 7 7 6 5 5 5 6 6 5 4 3 2 3 3 4 4 3 3
9 11 15 17 16 16 15 15 14 14 13 13 12 12 12 11 11 11 10 10 10 9 8 8 7 6 6 5 5 4 4 4 5 4 3 2 1 2 2 2 2 2 1
10 10 13 16 16 15 15 14 14 13 13 12 11 11 11 10 10 9 9 9 8 8 7 6 6 5 5 5 4 3 3 3 3 2 2 1 1 2 1 1 1 1 1
9 9 10 12 14 14 14 14 13 12 12 11 11 11 10 10 9 8 8 7 7 7 6 5 5 4 4 4 4 3 3 2 3 2 0 1 1 1 1 0 0 1 1
8 7 7 10 11 11 12 13 12 12 11 11 10 10 10 9 8 8 7 7 6 6 5 4 4 3 3 3 3 3 2 1 1 1 1 2 2 2 2 2 2 3 3
7 6 6 7 9 10 10 10 11 10 10 10 9 9 8 7 7 6 6 6 6 5 4 3 3 2 1 1 1 1 1 1 1 1 2 2 3 4 4 4 4 5 5
8 6 5 6 7 8 8 8 8 8 8 8 7 8 7 6 5 5 5 5 4 3 3 2 2 1 1 1 1 1 1 2 1 2 3 4 5 6 6 6 6 6 7
9 7 6 6 6 6 6 6 6 6 6 6 6 7 7 6 5 5 4 3 3 2 2 1 1 1 1 1 1 1 2 2 3 4 5 6 6 7 7 8 8 8 8
9 7 6 6 6 6 6 5 5 5 5 4 5 6 6 4 3 3 3 2 2 2 1 1 0 1 1 2 2 1 2 2 3 4 6 7 8 8 9 9 9 10 10
8 8 7 6 6 5 5 4 5 4 4 5 5 5 6 4 3 2 2 2 1 1 1 1 0 1 1 2 2 2 2 3 4 5 5 7 8 9 10 10 10 10 11
9 9 7 7 6 6 4 3 4 5 5 5 5 5 5 5 4 3 2 1 0 0 0 1 1 1 1 1 2 2 3 4 5 5 6 7 9 9 10 11 11 11 11
10 9 8 8 6 6 5 4 4 5 6 4 4 5 5 5 4 3 2 1 1 1 0 0 1 1 1 2 2 3 3 3 4 5 5 6 7 9 11 11 12 12 13
9 9 8 7 6 6 5 4 4 5 5 4 4 4 4 5 5 3 2 2 2 1 1 1 1 1 2 2 3 3 3 3 4 4 5 5 6 7 9 12 12 13 14
10 10 8 7 7 6 5 3 3 4 4 4 4 4 4 4 5 4 3 2 2 1 1 1 1 1 2 2 3 3 3 3 3 4 4 4 5 6 7 10 12 13 14
9 9 8 7 6 5 4 3 2 1 2 3 4 4 4 4 4 4 3 2 2 2 1 1 1 1 1 2 3 3 4 4 3 3 4 3 5 6 7 8 8 10 13
8 8 8 7 6 5 3 3 2 2 2 2 3 4 4 4 4 3 2 3 3 2 2 2 2 1 1 1 1 3 4 4 4 3 3 3 4 6 6 7 7 8 10
10 9 8 8 7 6 4 3 2 2 2 2 2 3 4 4 4 3 3 3 3 3 2 2 2 1 1 1 0 1 3 4 3 4 3 4 4 4 4 7 8 8 9
9 10 9 8 7 6 4 3 2 2 1 0 1 2 3 4 4 4 4 3 3 3 3 3 3 3 2 1 1 2 1 3 4 3 3 4 4 4 4 5 7 9 10
9 8 8 7 6 5 5 5 5 3 3 3 3 3 3 3 4 5 4 4 3 3 4 4 3 2 3 2 2 2 3 3 2 4 3 3 5 5 6 6 6 8 9
8 8 7 7 5 5 5 6 5 3 3 2 1 2 3 3 4 4 4 4 3 3 4 4 3 3 3 3 3 2 2 2 3 4 7 6 5 4 5 6 6 6 9
6 6 6 6 5 4 5 5 5 4 3 2 2 3 3 2 3 4 4 4 4 3 4 4 5 4 4 4 3 3 3 3 3 4 6 8 8 6 5 5 5 6 7
Wind_Direction
155 156 142 136 131 127 123 119 115 112 110 107 106 104 102 101 100 103 103 103 103 101 101 100 100 99 96 94 92 92 91 90 90 89 91 91 92 92 90 89 87 86 91
151 147 141 137 133 129 125 122 118 114 112 109 106 105 105 103 102 103 105 103 103 101 99 97 98 97 96 95 93 91 91 90 89 89 90 90 91 94 95 94 94 92 92
139 141 140 136 133 129 124 121 119 117 114 111 110 108 107 105 104 104 104 101 100 100 100 98 100 97 96 95 93 91 89 87 86 88 89 85 90 96 99 100 100 95 94
136 137 139 136 132 128 125 122 120 119 116 114 112 111 110 108 106 105 105 103 98 97 97 97 99 96 96 96 95 93 91 89 86 84 82 83 89 99 100 104 105 102 99
130 136 138 136 133 130 127 124 122 121 119 116 114 113 113 112 109 107 105 103 99 96 95 96 96 96 95 96 95 95 93 92 89 80 78 79 91 108 108 107 109 111 107
127 134 137 136 134 132 129 126 123 121 120 119 116 116 115 114 111 108 105 104 102 100 96 94 92 94 92 93 96 97 96 95 86 75 75 76 103 126 118 112 106 118 125
128 131 137 136 135 132 130 128 125 123 122 120 118 117 116 115 113 111 107 105 102 102 99 96 92 92 93 91 92 95 98 98 87 74 74 81 118 133 127 128 119 106 111
131 127 133 136 135 134 132 129 127 125 124 123 123 121 118 116 115 113 113 111 107 104 100 96 91 91 92 87 84 88 91 105 88 76 76 120 164 161 140 113 120 164 232
123 122 123 129 132 133 132 131 129 127 126 124 123 122 118 114 114 116 116 115 112 110 105 100 92 88 84 77 70 77 77 86 80 70 63 220 226 205 194 202 266 291 291
118 120 118 121 124 127 129 130 130 129 128 125 123 121 119 117 115 115 115 116 117 115 110 104 96 92 82 65 58 58 45 38 40 0 289 257 250 245 263 269 268 270 280
124 122 121 120 121 124 127 132 130 130 131 127 123 123 120 115 114 114 114 115 115 114 110 101 89 76 63 40 31 23 11 349 338 304 264 268 261 262 270 271 269 264 267
147 144 138 131 132 132 130 126 124 124 123 122 121 122 118 115 114 112 110 113 113 114 113 99 76 48 29 10 348 340 342 298 287 279 275 281 273 269 272 272 270 267 266
155 151 148 144 140 136 129 131 122 120 120 121 124 122 118 110 103 98 94 94 97 101 93 86 45 16 5 335 334 318 289 281 279 276 278 280 279 279 278 278 276 272 270
156 156 153 146 142 143 139 139 137 131 126 124 130 131 122 113 108 105 99 86 84 91 81 62 11 322 305 285 275 267 266 271 274 276 278 282 281 279 280 284 285 280 275
159 161 160 155 151 148 143 147 142 142 138 134 131 137 136 131 139 127 120 105 87 82 98 75 348 291 296 288 281 265 262 265 271 274 280 280 280 280 282 285 286 287 282
166 166 165 160 157 148 152 156 154 152 146 138 138 144 145 143 147 149 152 145 168 159 175 183 237 257 269 280 275 267 261 259 264 271 276 280 278 281 284 287 288 288 288
170 168 168 164 153 151 152 159 154 157 150 148 153 154 152 155 157 157 167 184 219 235 243 280 346 360 317 307 297 283 271 261 263 266 273 279 280 284 287 290 292 294 293
166 167 170 165 156 154 153 153 153 156 156 162 162 163 169 171 170 161 176 201 217 199 164 218 274 323 318 313 302 295 282 276 265 263 269 276 279 285 288 289 292 295 296
170 167 168 161 161 160 154 149 152 153 158 165 166 170 177 179 179 171 188 206 196 172 193 235 258 246 293 308 302 297 291 282 273 276 273 275 277 281 284 289 291 294 297
168 164 163 158 159 150 137 124 113 126 171 168 177 184 183 184 186 180 191 202 184 182 212 220 238 265 256 279 303 307 297 287 279 269 266 275 284 283 286 291 295 298 298
160 161 162 157 161 151 145 151 160 192 211 214 203 198 192 193 197 188 200 201 191 199 210 215 227 275 298 321 344 321 310 295 279 275 273 280 286 287 288 289 291 294 296
168 170 168 167 168 169 172 173 173 181 204 222 214 208 200 196 204 199 201 210 204 201 217 218 205 217 288 10 78 337 318 317 306 285 280 279 281 297 296 292 292 290 290
171 173 174 173 171 167 158 134 99 76 55 295 245 244 229 213 212 207 206 209 212 203 212 225 208 199 230 266 177 182 241 270 305 292 277 277 288 290 289 293 289 288 289
179 173 168 168 166 163 156 159 165 180 207 225 229 239 253 232 222 216 211 211 215 218 219 225 218 221 203 237 255 223 222 234 272 301 298 286 284 280 278 288 291 288 286
170 167 164 159 160 162 165 169 172 194 216 232 236 239 252 250 233 224 217 212 216 225 228 228 230 235 220 222 233 244 256 263 247 264 290 298 295 273 270 272 280 286 286
154 152 152 153 161 162 163 168 173 185 200 214 239 237 249 253 244 234 226 215 220 229 235 230 227 229 235 236 239 236 235 242 251 254 275 291 294 290 282 273 270 277 284
Height
1512 1514 1516 1518 1520 1521 1523 1524 1525 1527 1528 1528 1529 1530 1531 1532 1532 1533 1534 1534 1535 1535 1536 1536 1537 1537 1537 1537 1538 1538 1538 1538 1538 1537 1537 1537 1537 1537 1537 1537 1537 1536 1536
1511 1513 1516 1518 1520 1522 1523 1525 1526 1527 1528 1529 1530 1531 1531 1532 1533 1534 1534 1535 1536 1536 1536 1537 1537 1538 1538 1538 1538 1538 1538 1538 1538 1538 1538 1538 1538 1538 1538 1537 1537 1537 1537
1511 1513 1516 1518 1520 1522 1523 1525 1526 1527 1528 1529 1530 1531 1532 1533 1533 1534 1535 1535 1536 1536 1537 1537 1538 1538 1538 1538 1538 1538 1538 1538 1538 1538 1538 1538 1538 1538 1538 1538 1538 1538 1538
1511 1513 1515 1518 1520 1521 1523 1525 1526 1527 1528 1529 1530 1531 1532 1533 1534 1534 1535 1535 1536 1537 1537 1537 1538 1538 1538 1538 1538 1538 1538 1538 1538 1538 1538 1538 1538 1538 1538 1538 1538 1538 1538
1511 1513 1515 1518 1519 1521 1523 1524 1526 1527 1528 1529 1530 1531 1532 1533 1534 1534 1535 1536 1536 1537 1537 1537 1538 1538 1538 1538 1538 1538 1538 1538 1538 1538 1538 1538 1538 1538 1538 1538 1538 1538 1538
1511 1514 1515 1517 1519 1521 1523 1524 1526 1527 1528 1529 1530 1531 1532 1533 1534 1534 1535 1535 1536 1537 1537 1537 1538 1538 1538 1538 1538 1538 1538 1538 1538 1538 1538 1538 1538 1538 1538 1538 1537 1537 1537
1511 1513 1516 1518 1519 1521 1523 1524 1525 1527 1528 1529 1530 1531 1532 1532 1533 1534 1535 1535 1536 1536 1537 1537 1537 1537 1537 1537 1538 1538 1538 1538 1538 1537 1537 1537 1537 1537 1537 1537 1537 1537 1536
1511 1513 1516 1518 1519 1521 1523 1524 1525 1526 1527 1528 1529 1530 1531 1532 1533 1533 1534 1535 1535 1536 1536 1536 1536 1536 1537 1537 1537 1537 1537 1537 1537 1537 1537 1537 1537 1536 1536 1536 1536 1536 1535
1512 1513 1515 1517 1519 1521 1522 1524 1525 1526 1527 1528 1529 1530 1531 1531 1532 1533 1533 1534 1534 1535 1535 1535 1535 1536 1536 1536 1536 1536 1536 1536 1536 1536 1536 1535 1535 1535 1535 1535 1535 1534 1534
1511 1513 1515 1517 1519 1520 1522 1523 1524 1526 1527 1528 1528 1529 1530 1531 1531 1532 1532 1533 1533 1534 1534 1534 1534 1534 1535 1535 1535 1535 1535 1535 1535 1535 1534 1534 1534 1534 1534 1533 1533 1533 1532
1511 1513 1514 1516 1518 1520 1521 1522 1524 1525 1526 1527 1528 1529 1529 1530 1530 1531 1531 1532 1532 1532 1533 1533 1533 1533 1533 1533 1533 1533 1533 1533 1533 1533 1533 1533 1532 1532 1532 1531 1531 1530 1530
1509 1511 1513 1515 1517 1518 1520 1522 1523 1524 1525 1526 1527 1528 1529 1529 1530 1530 1530 1531 1531 1531 1531 1531 1531 1531 1531 1531 1532 1532 1531 1532 1531 1531 1531 1531 1530 1530 1530 1529 1529 1528 1528
1507 1509 1512 1514 1516 1517 1519 1520 1522 1523 1524 1525 1526 1527 1527 1528 1528 1529 1529 1529 1529 1529 1529 1529 1529 1529 1529 1529 1529 1529 1529 1529 1529 1529 1529 1529 1528 1528 1527 1527 1526 1526 1525
1506 1508 1510 1512 1514 1516 1518 1519 1521 1522 1523 1524 1525 1525 1526 1527 1527 1527 1527 1527 1527 1527 1527 1527 1527 1527 1527 1527 1527 1527 1527 1527 1527 1527 1526 1526 1526 1525 1525 1524 1524 1523 1522
1504 1506 1509 1511 1513 1514 1516 1518 1519 1520 1522 1523 1523 1524 1525 1525 1525 1525 1525 1525 1525 1525 1525 1525 1525 1525 1525 1525 1525 1525 1525 1525 1524 1524 1524 1523 1523 1522 1522 1521 1520 1520 1519
1502 1504 1507 1509 1511 1513 1514 1516 1517 1519 1520 1521 1522 1522 1523 1523 1523 1523 1523 1523 1523 1523 1523 1523 1523 1523 1523 1523 1522 1522 1522 1522 1522 1521 1521 1520 1520 1519 1519 1518 1517 1516 1515
1500 1502 1504 1507 1509 1511 1512 1514 1516 1517 1518 1519 1520 1520 1521 1521 1521 1521 1521 1521 1521 1521 1521 1521 1521 1520 1520 1520 1520 1519 1519 1519 1518 1518 1517 1517 1516 1516 1515 1514 1513 1513 1512
1497 1500 1502 1505 1507 1509 1510 1512 1513 1514 1515 1516 1517 1518 1518 1518 1519 1518 1518 1518 1518 1518 1518 1518 1518 1517 1517 1517 1516 1516 1516 1515 1515 1514 1514 1513 1512 1512 1511 1510 1509 1508 1507
1495 1497 1500 1502 1504 1506 1508 1510 1511 1512 1513 1514 1514 1515 1515 1516 1516 1516 1516 1516 1516 1515 1515 1515 1515 1514 1514 1513 1513 1512 1512 1512 1511 1511 1510 1509 1508 1507 1507 1506 1505 1504 1503
1492 1495 1497 1499 1502 1504 1505 1507 1508 1509 1510 1511 1512 1512 1513 1513 1513 1513 1513 1513 1513 1512 1512 1512 1512 1511 1511 1510 1509 1508 1508 1507 1507 1506 1506 1505 1504 1503 1502 1501 1500 1499 1498
1489 1491 1493 1496 1498 1500 1502 1503 1504 1505 1507 1508 1509 1509 1510 1510 1510 1510 1510 1510 1510 1509 1509 1509 1508 1508 1507 1507 1506 1504 1503 1503 1502 1502 1501 1500 1500 1499 1498 1496 1495 1494 1492
1484 1487 1490 1492 1495 1497 1498 1500 1501 1502 1504 1505 1506 1506 1506 1507 1507 1507 1507 1507 1507 1506 1506 1506 1505 1504 1504 1504 1503 1501 1499 1498 1497 1497 1496 1495 1495 1494 1493 1492 1490 1489 1487
1480 1483 1486 1488 1491 1493 1495 1497 1498 1499 1500 1501 1502 1502 1503 1503 1504 1504 1504 1504 1503 1503 1502 1502 1502 1501 1500 1501 1501 1501 1499 1495 1493 1491 1491 1491 1490 1489 1488 1487 1485 1484 1482
1476 1479 1482 1485 1487 1490 1491 1493 1494 1494 1495 1496 1498 1499 1499 1500 1500 1500 1500 1500 1500 1499 1499 1499 1499 1498 1497 1497 1497 1497 1497 1495 1493 1488 1487 1487 1486 1485 1484 1482 1481 1479 1477
1473 1476 1478 1481 1484 1486 1488 1489 1490 1491 1492 1493 1494 1495 1495 1496 1496 1497 1497 1496 1496 1496 1495 1495 1495 1494 1494 1493 1493 1493 1492 1492 1490 1488 1483 1481 1480 1480 1479 1477 1476 1474 1472
1469 1472 1475 1478 1480 1483 1484 1486 1487 1488 1489 1489 1490 1491 1491 1492 1492 1492 1492 1492 1492 1492 1491 1491 1490 1490 1490 1489 1488 1488 1488 1487 1486 1484 1481 1477 1475 1474 1473 1472 1471 1469 1467